Location: Forst
(46.9333°N, 15.4333°E)
Time: 06:41:51
(UTC+00:00)

Meteor 2-6 Rocket - Pass Details

Date: 01 December 2020
Orbit: 806 x 914 km, 81.3° (Epoch: 18 January)

Event Time Altitude Azimuth Distance (km) Brightness Sun altitude
Rises 17:25:19 0° 190° (S) 3,410 7.6 -22.1°
Reaches altitude 10° 17:27:45 10° 191° (SSW) 2,462 6.8 -22.6°
Maximum altitude 17:33:20 85° 281° (W) 839 4.1 -23.5°
Enters shadow 17:37:32 18° 9° (N) 1,932 5.9 -24.2°
